^^
Station Historical Data
Daily Summary for July 5, 2017 Units:  Metric    English   Both
« Previous Day
Next Day »
Daily Weekly Monthly Yearly Custom
  High: Low: Average:
Temperature: 28 °C 8.9 °C 16 °C
Dew Point: 0.5 °C -4.9 °C -2.8 °C
Humidity: 40% 15% 29%
Wind Speed: 24.1km/h 0km/h 2.1km/h
Wind Gust: 24.1km/h - -
Wind- - North
Pressure: 1023.2 hPa 1019.5 hPa -
Precipitation: 0 mm    
Historical Graphs
 
 
Tabular Data for July 5, 2017
Time Temperature Dew Point Pressure Wind Wind Speed Wind Gust Humidity Rainfall Rate (Hourly) solar Conditions
01:14 13.4 °C -4.3 °C 1020.9 hPa Calm     29% 0 mm 0.0 W/m2
01:24 12.9 °C -4.3 °C 1020.9 hPa Calm     30% 0 mm 0.0 W/m2
01:30 12.5 °C -4.2 °C 1020.9 hPa Calm     31% 0 mm 0.0 W/m2
01:41 12.9 °C -4.3 °C 1020.9 hPa Calm     30% 0 mm 0.0 W/m2
02:01 11.2 °C -4.9 °C 1020.9 hPa Calm     32% 0 mm 0.0 W/m2
02:06 10.9 °C -4.8 °C 1020.9 hPa Calm     33% 0 mm 0.0 W/m2
02:12 10.7 °C -4.5 °C 1020.9 hPa Calm     34% 0 mm 0.0 W/m2
02:22 10.8 °C -4.1 °C 1020.9 hPa Calm     35% 0 mm 0.0 W/m2
02:27 11.1 °C -4.2 °C 1020.9 hPa Calm     34% 0 mm 0.0 W/m2
02:32 11.1 °C -4.2 °C 1020.9 hPa Calm     34% 0 mm 0.0 W/m2
02:37 11 °C -4.3 °C 1020.9 hPa Calm     34% 0 mm 0.0 W/m2
02:42 10.9 °C -4.4 °C 1020.9 hPa Calm     34% 0 mm 0.0 W/m2
02:47 10.8 °C -4.4 °C 1020.9 hPa Calm     34% 0 mm 0.0 W/m2
02:53 10.7 °C -4.1 °C 1020.9 hPa Calm     35% 0 mm 0.0 W/m2
02:58 10.6 °C -4.2 °C 1020.9 hPa Calm     35% 0 mm 0.0 W/m2
03:03 10.8 °C -4.1 °C 1020.9 hPa Calm     35% 0 mm 0.0 W/m2
03:08 10.8 °C -4.4 °C 1020.9 hPa Calm     34% 0 mm 0.0 W/m2
03:13 10.4 °C -4.4 °C 1020.9 hPa Calm     35% 0 mm 0.0 W/m2
03:19 10.3 °C -4.1 °C 1020.9 hPa Calm     36% 0 mm 0.0 W/m2
03:24 10.6 °C -3.9 °C 1020.9 hPa Calm     36% 0 mm 0.0 W/m2
03:29 10.8 °C -4.1 °C 1020.9 hPa Calm     35% 0 mm 0.0 W/m2
03:34 10.9 °C -4 °C 1020.9 hPa Calm     35% 0 mm 0.0 W/m2
03:39 10.9 °C -4 °C 1020.9 hPa Calm     35% 0 mm 0.0 W/m2
03:45 10.8 °C -4.1 °C 1020.9 hPa Calm     35% 0 mm 0.0 W/m2
03:50 10.6 °C -4.2 °C 1020.9 hPa Calm     35% 0 mm 0.0 W/m2
03:55 10.4 °C -4 °C 1020.9 hPa Calm     36% 0 mm 0.0 W/m2
04:00 10.4 °C -4 °C 1021.2 hPa Calm     36% 0 mm 0.0 W/m2
04:06 10.6 °C -3.9 °C 1021.2 hPa Calm     36% 0 mm 0.0 W/m2
04:11 10.4 °C -4.4 °C 1021.2 hPa Calm     35% 0 mm 0.0 W/m2
04:16 10.1 °C -4.3 °C 1021.2 hPa Calm     36% 0 mm 0.0 W/m2
04:21 9.7 °C -4.7 °C 1021.2 hPa Calm     36% 0 mm 0.0 W/m2
04:27 9.6 °C -4.4 °C 1021.2 hPa Calm     37% 0 mm 0.0 W/m2
04:37 8.9 °C -4.7 °C 1021.2 hPa Calm     38% 0 mm 0.0 W/m2
04:42 8.9 °C -4.3 °C 1021.2 hPa Calm     39% 0 mm 0.0 W/m2
04:47 8.9 °C -4.3 °C 1021.2 hPa Calm     39% 0 mm 0.0 W/m2
04:52 9.2 °C -4.4 °C 1021.2 hPa Calm     38% 0 mm 0.0 W/m2
04:58 9.3 °C -4.3 °C 1021.2 hPa Calm     38% 0 mm 0.0 W/m2
05:03 9.3 °C -4.3 °C 1021.2 hPa Calm     38% 0 mm 0.0 W/m2
05:08 9.3 °C -4.3 °C 1021.2 hPa Calm     38% 0 mm 0.0 W/m2
05:13 9.1 °C -4.5 °C 1021.2 hPa Calm     38% 0 mm 0.0 W/m2
05:18 9.1 °C -4.1 °C 1021.2 hPa Calm     39% 0 mm 0.0 W/m2
05:23 9.1 °C -4.1 °C 1021.2 hPa Calm     39% 0 mm 0.0 W/m2
05:34 9.6 °C -3.3 °C 1021.2 hPa Calm     40% 0 mm 0.0 W/m2
05:49 13.8 °C -3 °C 1021.6 hPa North 6.4 km/h 17.7 km/h 31% 0 mm 0.0 W/m2
05:59 14 °C -3.3 °C 1021.9 hPa North 3.2 km/h 8 km/h 30% 0 mm 0.0 W/m2
06:05 13.7 °C -3.1 °C 1021.9 hPa Calm   8 km/h 31% 0 mm 0.0 W/m2
06:09 13.2 °C -3.6 °C 1021.9 hPa Calm   11.3 km/h 31% 0 mm 0.0 W/m2
06:18 12.4 °C -3.8 °C 1021.9 hPa Calm   8 km/h 32% 0 mm 0.0 W/m2
06:29 11.4 °C -3.5 °C 1021.9 hPa North 6.4 km/h 11.3 km/h 35% 0 mm 0.0 W/m2
06:39 11.9 °C -3.5 °C 1021.9 hPa North 6.4 km/h 9.7 km/h 34% 0 mm 0.0 W/m2
06:45 12.1 °C -3.3 °C 1021.9 hPa Calm     34% 0 mm 7.0 W/m2
06:50 12.1 °C -3.3 °C 1021.9 hPa Calm     34% 0 mm 7.0 W/m2
07:06 11.7 °C -3.7 °C 1021.9 hPa North 6.4 km/h 8 km/h 34% 0 mm 14.0 W/m2
07:20 12.1 °C -3.3 °C 1022.2 hPa North 1.4 km/h 8 km/h 34% 0 mm 21.0 W/m2
07:30 13.3 °C -2.6 °C 1022.2 hPa North 6.4 km/h 9.7 km/h 33% 0 mm 81.0 W/m2
07:37 13.3 °C -2.6 °C 1022.2 hPa North 6.4 km/h 9.7 km/h 33% 0 mm 81.0 W/m2
07:51 14.9 °C -2.5 °C 1022.2 hPa Calm   11.3 km/h 30% 0 mm 134.0 W/m2
08:01 16 °C -2.5 °C 1022.6 hPa Calm   6.4 km/h 28% 0 mm 188.0 W/m2
08:08 16 °C -2.5 °C 1022.6 hPa Calm   6.4 km/h 28% 0 mm 188.0 W/m2
08:16 16.8 °C -2.3 °C 1022.6 hPa Calm   8 km/h 27% 0 mm 241.0 W/m2
08:24 16.8 °C -2.3 °C 1022.6 hPa Calm   8 km/h 27% 0 mm 241.0 W/m2
08:36 16.9 °C -2.7 °C 1022.9 hPa Calm   8 km/h 26% 0 mm 294.0 W/m2
08:52 17.2 °C -2.5 °C 1022.9 hPa North 3.2 km/h 6.4 km/h 26% 0 mm 332.0 W/m2
09:27 17.9 °C -2.4 °C 1023.2 hPa North 1.4 km/h 9.7 km/h 25% 0 mm 401.0 W/m2
09:43 18.6 °C -2.4 °C 1023.2 hPa Calm   12.9 km/h 24% 0 mm 434.0 W/m2
09:59 19.3 °C -2.4 °C 1023.2 hPa Calm   11.3 km/h 23% 0 mm 462.0 W/m2
10:13 20.2 °C -1.6 °C 1023.2 hPa North 1.4 km/h 19.3 km/h 23% 0 mm 485.0 W/m2
10:42 21.3 °C -1.3 °C 1022.6 hPa North 13 km/h 20.9 km/h 22% 0 mm 529.0 W/m2
11:27 22.9 °C -0.6 °C 1022.2 hPa North 9.7 km/h 14.5 km/h 21% 0 mm 570.0 W/m2
11:37 23.4 °C -0.2 °C 1022.2 hPa North 9.7 km/h 20.9 km/h 21% 0 mm 573.0 W/m2
11:57 24 °C -0.3 °C 1021.9 hPa North 7.9 km/h 19.3 km/h 20% 0 mm 577.0 W/m2
12:19 24.9 °C 0.4 °C 1021.2 hPa North 1.4 km/h 20.9 km/h 20% 0 mm 573.0 W/m2
12:50 25.7 °C 0.3 °C 1020.5 hPa North 14.3 km/h 17.7 km/h 19% 0 mm 557.0 W/m2
13:19 26 °C -0.2 °C 1020.2 hPa NNW 24.1 km/h 24.1 km/h 18% 0 mm 524.0 W/m2
13:39 26.6 °C 0.3 °C 1019.9 hPa NNW 20.9 km/h 24.1 km/h 18% 0 mm 496.0 W/m2
13:48 26.4 °C 0.2 °C 1019.9 hPa NNW 6.4 km/h 24.1 km/h 18% 0 mm 478.0 W/m2
13:59 26.6 °C 0.3 °C 1019.9 hPa NNW 7.9 km/h 24.1 km/h 18% 0 mm 461.0 W/m2
14:39 27.2 °C 0 °C 1019.5 hPa Calm   9.7 km/h 17% 0 mm 374.0 W/m2
14:45 27.4 °C 0.2 °C 1019.5 hPa Calm   17.7 km/h 17% 0 mm 353.0 W/m2
14:59 27.8 °C 0.5 °C 1019.5 hPa Calm   12.9 km/h 17% 0 mm 329.0 W/m2
15:11 27.8 °C -0.3 °C 1019.5 hPa North 9.7 km/h 20.9 km/h 16% 0 mm 302.0 W/m2
15:31 27.7 °C -0.4 °C 1019.5 hPa North 1.4 km/h 14.5 km/h 16% 0 mm 239.0 W/m2
15:39 27.9 °C -0.2 °C 1019.5 hPa North 3.2 km/h 9.7 km/h 16% 0 mm 225.0 W/m2
15:50 27.9 °C -0.2 °C 1019.5 hPa North 3.2 km/h 19.3 km/h 16% 0 mm 192.0 W/m2
16:03 28 °C -1 °C 1019.5 hPa North 3.2 km/h 9.7 km/h 15% 0 mm 146.0 W/m2
16:12 28 °C -1 °C 1019.5 hPa Calm   6.4 km/h 15% 0 mm 107.0 W/m2
16:21 27.8 °C -1.2 °C 1019.5 hPa Calm     15% 0 mm 76.0 W/m2
16:27 27.8 °C -1.2 °C 1019.5 hPa Calm     15% 0 mm 62.0 W/m2
16:32 27.6 °C -1.4 °C 1019.5 hPa North 7.9 km/h 14.5 km/h 15% 0 mm 49.0 W/m2
16:50 27 °C -1.8 °C 1019.5 hPa Calm   6.4 km/h 15% 0 mm 18.0 W/m2
17:20 25.4 °C -0.6 °C 1019.9 hPa Calm     18% 0 mm 0.0 W/m2
17:30 25.1 °C -0.9 °C 1020.2 hPa North 6.4 km/h 8 km/h 18% 0 mm 0.0 W/m2
17:38 24.9 °C -1.1 °C 1020.2 hPa Calm   3.2 km/h 18% 0 mm 0.0 W/m2
Canyon Roadhouse, Fishriver Canyon, Namibia
Compliments of Weather Underground - 2 mb